Miscellaneous Local Product
Issued by NWS Hastings, NE

Home | Current Version | Previous Version | Graphics & Text | Print | Product List | Glossary On
Versions: 1 2 3 4 5 6 7 8 9 10 11 12 13 14 15 16 17 18 19 20 21 22 23 24 25 26 27 28 29 30 31 32 33 34 35 36 37 38 39 40 41 42 43 44 45 46 47 48 49 50
000
AXUS43 KGID 170602
MISGRI

GID CWA HOURLY WEATHER ROUNDUP
NATIONAL WEATHER SERVICE HASTINGS NE
1200 AM CST TUE JAN 17 2017

NOTE: "FAIR" INDICATES FEW OR NO CLOUDS BELOW 12,000 FEET WITH NO
SIGNIFICANT WEATHER AND/OR OBSTRUCTIONS TO VISIBILITY.

...SOUTH CENTRAL NEBRASKA...

CITY           SKY/WX    TMP DP  RH WIND       PRES   REMARKS
GRAND ISLAND     N/A    N/A N/A N/A MISG        N/A
HASTINGS       PTCLDY    30  26  85 NW9       30.02R WCI  22
KEARNEY        CLEAR     28  21  74 CALM      30.03R
ORD            CLOUDY    24  18  77 NW15      30.02S WCI  11
YORK           CLOUDY    32  28  86 CALM      30.00S
AURORA         CLOUDY    31  28  90 N3        30.00S
LEXINGTON      CLEAR     29  23  78 NW9       30.05R WCI  20
HOLDREGE       CLEAR     31  26  81 NW3       30.04R
HEBRON         CLOUDY    32  30  92 NW3       30.01R

...NEBRASKA PANHANDLE...

CITY           SKY/WX    TMP DP  RH WIND       PRES   REMARKS
CHADRON        CLEAR     14  10  84 CALM      30.09S
ALLIANCE       CLOUDY    18  13  80 W10       30.05F WCI   6
SCOTTSBLUFF    CLEAR     21  15  78 NW7       30.10S WCI  12
SIDNEY         CLOUDY    20  13  74 W10       30.08S WCI   9

...WESTERN AND NORTH CENTRAL NEBRASKA...

CITY           SKY/WX    TMP DP  RH WIND       PRES   REMARKS
VALENTINE      CLEAR     20  13  74 W8        30.06R WCI  10
AINSWORTH      CLOUDY    20  17  86 NW9       30.04S WCI  10
ONEILL         CLOUDY    21  17  83 NW13      30.04S WCI   9
BROKEN BOW     CLOUDY    27  19  72 NW16      30.03R WCI  15
IMPERIAL       CLEAR     29  22  75 NW10      30.07F WCI  20
NORTH PLATTE   CLEAR     24  18  77 W7        30.06S WCI  16
MCCOOK         CLEAR     30  24  78 W7        30.07S WCI  23

...EASTERN NEBRASKA...

CITY           SKY/WX    TMP DP  RH WIND       PRES   REMARKS
NORFOLK        CLOUDY    24  18  77 NW17      30.01R WCI  11
SO SIOUX CITY  CLOUDY    29  25  85 NW20      29.99R WCI  16
TEKAMAH        CLOUDY    32  30  92 NW14      29.97F FOG     WCI  22
COLUMBUS       CLOUDY    28  25  86 CALM      30.01S
ALBION         PTCLDY    24  19  81 NW5       30.01S HAZE    WCI  18
OMAHA EPPLEY   CLOUDY    34  30  85 NW16      29.97R FOG     WCI  24
OFFUTT AFB     CLOUDY    34  34 100 NW13      29.95S WCI  25
MILLARD        DRIZZLE   35  33  92 NW9       29.97S WCI  28
LINCOLN        CLOUDY    33  30  88 NW13      30.00R WCI  24
NEBRASKA CITY  CLOUDY    32  32 100 N9        29.96R WCI  25
BEATRICE       CLOUDY    33  32  96 N7        29.98R WCI  27
FALLS CITY     CLOUDY    34  33  96 NW9       29.95R WCI  27

...NORTHERN KANSAS...

CITY           SKY/WX    TMP DP  RH WIND       PRES   REMARKS
GOODLAND       CLOUDY    29  25  85 W9        30.08S WCI  20
HILL CITY      CLOUDY    33  30  88 NW10      30.07R WCI  25
NORTON         CLEAR     30  25  80 NW9       30.05S WCI  22
PHILLIPSBURG   CLEAR     32  28  86 W6        30.06R WCI  26
SMITH CENTER   MOCLDY    30  28  93 NW7       30.05S WCI  23
HAYS           PTCLDY    33  31  92 NW9       30.06R WCI  25
RUSSELL        CLOUDY    33  31  92 NW8       30.04S WCI  26
CONCORDIA      CLOUDY    33  33 100 NW7       30.02R WCI  27
SALINA           N/A    N/A N/A N/A MISG        N/A
TOPEKA         CLOUDY    36  32  85 W8        29.98R WCI  30



USA.gov is the U.S. government's official web portal to all federal, state and local government web resources and services.